Flag for Mozambique Weather past 2 weeks in Nampula, Mozambique

Now
82 °F

Partly sunny.


Feels Like: 83 °F
Forecast: 61 / 87 °F
Wind: 6 mph from Northeast

Location: Nampula Airport

Current Time: Jul 30, 2015 at 12:34:40 PM

Latest Report: Jul 30, 2015 at 12:00 PM


Visibility: N/A

Pressure: 30.07 "Hg

Humidity: 48%

Dew point: 61 °F

Location of NampulaLocation

Historic Weather in Nampula — Graph

°F

Nampula temperature yesterday

Maximum temperature yesterday: 82 °F (at 4:00 PM)
Minimum temperature yesterday: 64 °F (at 5:00 AM)
Average temperature yesterday: 72 °F

Past Weeks' High & Low Weather Summary

 TemperatureHumidityPressure
High86 °F (Jul 26, 1:00 PM)100% (Jul 18, 7:00 AM)30.21 "Hg (Jul 18, 7:00 AM)
Low61 °F (Jul 16, 5:00 AM)28% (Jul 25, 11:00 AM)29.98 "Hg (Jul 26, 3:00 PM)
Average74 °F68%30.12 "Hg
* Reported Jul 15 11:00 AM — Jul 30 11:00 AM, Nampula, Weather by CustomWeather, © 2015

Note: Actual official high and low records may vary slightly from our data, if they occured in-between our weather recording intervals... More about our weather records

Advertising

Nampula weather history for previous 24 hours

 ConditionsComfort  
Time TempWeatherWind HumidityBarometerVisibility
11:00 AM
Thu, Jul 30
79 °FPartly sunny.6 mph51%30.09 "HgN/A
10:00 AM75 °FPartly sunny.9 mph57%30.15 "HgN/A
9:00 AM73 °FBroken clouds.3 mph69%30.15 "HgN/A
8:00 AM68 °FBroken clouds.1 mph88%30.12 "HgN/A
7:00 AM66 °FBroken clouds.2 mph88%30.12 "HgN/A
6:00 AM66 °FPassing clouds.No wind83%30.09 "HgN/A
5:00 AM66 °FPassing clouds.No wind94%30.12 "HgN/A
11:00 PM
Wed, Jul 29
68 °FClear.2 mph88%30.12 "Hg10 mi
10:00 PM70 °FPassing clouds.2 mph78%30.12 "HgN/A
9:00 PM70 °FPassing clouds.3 mph78%30.12 "HgN/A
7:00 PM73 °FPassing clouds.9 mph69%30.09 "HgN/A
6:00 PM75 °FPassing clouds.5 mph61%30.07 "HgN/A
4:00 PM82 °FScattered clouds.5 mph48%30.09 "HgN/A
3:00 PM81 °FScattered clouds.5 mph48%30.07 "HgN/A
2:00 PM81 °FScattered clouds.5 mph51%30.07 "HgN/A
1:00 PM79 °FPassing clouds.5 mph58%30.09 "HgN/A
Weather by CustomWeather, © 2015

See weather overviewHow to use our weather pages